El Centro, CA

11:15 PM PDT on September 25, 2017 (GMT -0700)
El Centro Naval Air Facility

Weather History for KNJK - September, 2013

Change the Weather History Date:

Sunday, September 29, 2013

  Actual Average Record
Temperature  
Mean Temperature 76 °F -  
Max Temperature 95 °F 95 °F 106 °F (2015)
Min Temperature 59 °F 69 °F 59 °F (2013)
Cooling Degree Days 11    
Growing Degree Days 26 (Base 50)    
Moisture  
Dew Point 28 °F    
Average Humidity 18    
Maximum Humidity 31    
Minimum Humidity 8    
Precipitation  
Precipitation 0.00 in - - ()
Sea Level Pressure  
Sea Level Pressure 30.00 in    
Wind  
Wind Speed 5 mph (SSE)    
Max Wind Speed 6 mph    
Max Gust Speed -    
Visibility 10 miles    
Events      
Averages and records for this station are not official NWS values.
T = Trace of Precipitation, MM = Missing Value Source: NWS Daily Summary

Daily Weather History Graph

Daily Weather History Graph

Search for Another Location

Airport or City:

Trip Planner

Search our weather history database for the weather conditions in past years. The results will help you decide how hot, cold, wet, or windy it might be!

Date:

Astronomy

Sep. 29, 2013 Rise Set
Actual Time 6:35 AM PDT 6:29 PM PDT
Civil Twilight 6:11 AM PDT 6:54 PM PDT
Nautical Twilight 5:42 AM PDT 7:22 PM PDT
Astronomical Twilight 5:13 AM PDT 7:51 PM PDT
Moon 1:35 AM PDT (9/29) 3:15 PM PDT (9/29)
Length of Visible Light 12h 43m
Length of Day
11h 53m
Waning Crescent, 26% of the Moon is Illuminated
Sep 29
Waning Crescent
Oct 4
New
Oct 11
First Quarter
Oct 18
Full
Oct 26
Last Quarter

Hourly Weather History & Observations

Time (PDT) Temp. Dew Point Humidity Pressure Visibility Wind Dir Wind Speed Gust Speed Precip Events Conditions
12:56 AM 64.9 °F 24.1 °F 21% 30.03 in 10.0 mi North - - N/A   Clear
1:56 AM 66.0 °F 25.0 °F 21% 30.03 in 10.0 mi North - - N/A   Clear
2:56 AM 64.9 °F 24.1 °F 21% 30.02 in 10.0 mi North - - N/A   Clear
3:56 AM 60.1 °F 28.9 °F 31% 30.02 in 10.0 mi North - - N/A   Clear
4:56 AM 59.0 °F 28.0 °F 31% 30.02 in 10.0 mi North - - N/A   Clear
5:56 AM 60.1 °F 27.0 °F 28% 30.03 in 10.0 mi North - - N/A   Clear
6:56 AM 60.1 °F 24.1 °F 25% 30.04 in 10.0 mi North - - N/A   Clear
7:56 AM 66.9 °F 25.0 °F 21% 30.06 in 10.0 mi North - - N/A   Clear
8:56 AM 73.9 °F 25.0 °F 16% 30.07 in 10.0 mi North - - N/A   Clear
9:56 AM 82.9 °F 23.0 °F 11% 30.07 in 10.0 mi North - - N/A   Clear
10:56 AM 87.1 °F 23.0 °F 10% 30.06 in 10.0 mi North - - N/A   Clear
11:56 AM 89.1 °F 21.0 °F 8% 30.04 in 10.0 mi North - - N/A   Clear
12:56 PM 91.0 °F 23.0 °F 8% 30.01 in 10.0 mi South 4.6 mph - N/A   Clear
1:56 PM 93.0 °F 28.9 °F 10% 29.98 in 10.0 mi SE 5.8 mph - N/A   Clear
2:56 PM 93.0 °F 27.0 °F 9% 29.96 in 10.0 mi North - - N/A   Clear
3:56 PM 93.0 °F 27.0 °F 9% 29.94 in 10.0 mi North - - N/A   Clear
4:56 PM 93.0 °F 28.9 °F 10% 29.93 in 10.0 mi North - - N/A   Clear
5:56 PM 91.9 °F 28.9 °F 11% 29.92 in 10.0 mi North - - N/A   Clear
6:56 PM 84.0 °F 33.1 °F 16% 29.92 in 10.0 mi North - - N/A   Clear
7:56 PM 82.0 °F 33.1 °F 17% 29.94 in 10.0 mi North - - N/A   Clear
8:56 PM 79.0 °F 34.0 °F 20% 29.95 in 10.0 mi North - - N/A   Clear
9:56 PM 75.9 °F 36.0 °F 23% 29.95 in 10.0 mi North - - N/A   Clear
10:56 PM 71.1 °F 34.0 °F 26% 29.95 in 10.0 mi North - - N/A   Clear
11:56 PM 69.1 °F 32.0 °F 25% 29.95 in 10.0 mi North - - N/A   Clear